Time,TemperatureF,DewpointF,PressureIn,WindDirection,WindDirectionDegrees,WindSpeedMPH,WindSpeedGustMPH,Humidity,HourlyPrecipIn,Conditions,Clouds,dailyrainin,SoftwareType,DateUTC
2013-06-25 00:04:00,74.9,67.9,30.00,SW,223,5.0,11.0,79,0.00,,---,0.02,VWS V14.00,2013-06-25 04:04:00,
2013-06-25 00:06:00,74.9,67.9,30.00,SW,223,3.0,11.0,79,0.00,,---,0.00,VWS V14.00,2013-06-25 04:06:00,
2013-06-25 00:09:00,74.8,67.5,30.00,SSW,212,4.0,10.0,78,0.00,,---,0.00,VWS V14.00,2013-06-25 04:09:00,
2013-06-25 00:14:00,74.9,67.2,30.00,SW,218,9.0,10.0,77,0.00,,---,0.00,VWS V14.00,2013-06-25 04:14:00,
2013-06-25 00:19:00,74.9,66.8,30.00,WSW,244,5.0,10.0,76,0.00,,---,0.00,VWS V14.00,2013-06-25 04:19:00,
2013-06-25 00:24:00,74.9,66.4,30.00,WSW,244,4.0,10.0,75,0.00,,---,0.00,VWS V14.00,2013-06-25 04:24:00,
2013-06-25 00:29:00,74.9,66.1,30.00,SW,226,7.0,11.0,74,0.00,,---,0.00,VWS V14.00,2013-06-25 04:29:00,
2013-06-25 00:34:00,74.9,66.1,30.00,SW,229,5.0,11.0,74,0.00,,---,0.00,VWS V14.00,2013-06-25 04:34:00,
2013-06-25 00:39:00,75.0,65.8,30.00,SW,225,5.0,12.0,73,0.00,,---,0.00,VWS V14.00,2013-06-25 04:39:00,
2013-06-25 00:44:00,75.1,65.5,30.00,SSW,213,5.0,12.0,72,0.00,,---,0.00,VWS V14.00,2013-06-25 04:44:00,
2013-06-25 00:49:00,75.2,65.6,30.00,SW,224,7.0,13.0,72,0.00,,---,0.00,VWS V14.00,2013-06-25 04:49:00,
2013-06-25 00:54:00,75.1,65.5,30.00,SW,217,5.0,13.0,72,0.00,,---,0.00,VWS V14.00,2013-06-25 04:54:00,
2013-06-25 01:00:00,75.0,65.8,30.00,SW,226,0.0,13.0,73,0.00,,---,0.00,VWS V14.00,2013-06-25 05:00:00,
2013-06-25 01:05:00,74.9,65.7,30.00,SW,226,0.0,13.0,73,0.00,,---,0.00,VWS V14.00,2013-06-25 05:05:00,
2013-06-25 01:10:00,74.6,65.4,30.00,SW,226,2.0,4.0,73,0.00,,---,0.00,VWS V14.00,2013-06-25 05:10:00,
2013-06-25 01:15:00,74.4,65.6,30.00,SW,227,0.0,4.0,74,0.00,,---,0.00,VWS V14.00,2013-06-25 05:15:00,
2013-06-25 01:20:00,74.2,65.8,30.00,SW,227,0.0,4.0,75,0.00,,---,0.00,VWS V14.00,2013-06-25 05:20:00,
2013-06-25 01:25:00,74.0,65.6,30.00,SW,227,0.0,4.0,75,0.00,,---,0.00,VWS V14.00,2013-06-25 05:25:00,
2013-06-25 01:30:00,73.8,65.8,29.99,SW,227,0.0,4.0,76,0.00,,---,0.00,VWS V14.00,2013-06-25 05:30:00,
2013-06-25 01:35:00,73.6,65.6,30.00,SW,226,0.0,4.0,76,0.00,,---,0.00,VWS V14.00,2013-06-25 05:35:00,
2013-06-25 01:40:00,73.4,65.4,30.00,SW,227,0.0,0.0,76,0.00,,---,0.00,VWS V14.00,2013-06-25 05:40:00,
2013-06-25 01:45:00,73.1,65.5,30.00,SW,226,0.0,0.0,77,0.00,,---,0.00,VWS V14.00,2013-06-25 05:45:00,
2013-06-25 01:50:00,72.9,65.3,30.00,SW,227,0.0,0.0,77,0.00,,---,0.00,VWS V14.00,2013-06-25 05:50:00,
2013-06-25 01:55:00,72.6,65.3,30.00,SW,227,0.0,0.0,78,0.00,,---,0.00,VWS V14.00,2013-06-25 05:55:00,
2013-06-25 02:00:00,72.3,65.4,30.00,SW,227,0.0,0.0,79,0.00,,---,0.00,VWS V14.00,2013-06-25 06:00:00,
2013-06-25 02:05:00,72.0,65.5,30.00,SW,227,0.0,0.0,80,0.00,,---,0.00,VWS V14.00,2013-06-25 06:05:00,
2013-06-25 02:10:00,71.7,65.6,30.01,SW,226,0.0,1.0,81,0.00,,---,0.00,VWS V14.00,2013-06-25 06:10:00,
2013-06-25 02:15:00,71.4,65.6,30.01,SW,226,0.0,1.0,82,0.00,,---,0.00,VWS V14.00,2013-06-25 06:15:00,
2013-06-25 02:20:00,71.3,65.5,30.00,SW,227,0.0,1.0,82,0.00,,---,0.00,VWS V14.00,2013-06-25 06:20:00,
2013-06-25 02:25:00,71.1,65.3,30.00,SW,226,0.0,1.0,82,0.00,,---,0.00,VWS V14.00,2013-06-25 06:25:00,
2013-06-25 02:30:00,70.8,65.4,30.00,SW,227,0.0,1.0,83,0.00,,---,0.00,VWS V14.00,2013-06-25 06:30:00,
2013-06-25 02:35:00,70.5,65.1,30.00,SW,227,0.0,1.0,83,0.00,,---,0.00,VWS V14.00,2013-06-25 06:35:00,
2013-06-25 02:40:00,70.3,65.2,30.00,SW,227,0.0,2.0,84,0.00,,---,0.00,VWS V14.00,2013-06-25 06:40:00,
2013-06-25 02:45:00,70.2,65.5,30.00,SW,226,0.0,2.0,85,0.00,,---,0.00,VWS V14.00,2013-06-25 06:45:00,
2013-06-25 02:50:00,70.0,65.3,30.00,SW,227,0.0,2.0,85,0.00,,---,0.00,VWS V14.00,2013-06-25 06:50:00,
2013-06-25 02:55:00,69.9,65.2,30.00,SW,226,2.0,3.0,85,0.00,,---,0.00,VWS V14.00,2013-06-25 06:55:00,
2013-06-25 03:00:00,69.9,65.2,30.00,SW,227,2.0,4.0,85,0.00,,---,0.00,VWS V14.00,2013-06-25 07:00:00,
2013-06-25 03:05:00,69.9,65.2,30.00,SW,227,1.0,4.0,85,0.00,,---,0.00,VWS V14.00,2013-06-25 07:05:00,
2013-06-25 03:10:00,69.9,65.2,30.00,SW,227,3.0,4.0,85,0.00,,---,0.00,VWS V14.00,2013-06-25 07:10:00,
2013-06-25 03:15:00,69.9,65.2,30.00,SW,226,2.0,4.0,85,0.00,,---,0.00,VWS V14.00,2013-06-25 07:15:00,
2013-06-25 03:20:00,69.9,65.2,30.00,SW,227,1.0,4.0,85,0.00,,---,0.00,VWS V14.00,2013-06-25 07:20:00,
2013-06-25 03:25:00,69.8,65.1,30.00,SW,226,1.0,4.0,85,0.00,,---,0.00,VWS V14.00,2013-06-25 07:25:00,
2013-06-25 03:30:00,69.7,65.0,29.99,SW,226,3.0,4.0,85,0.00,,---,0.00,VWS V14.00,2013-06-25 07:30:00,
2013-06-25 03:35:00,69.7,65.3,29.99,SW,226,2.0,4.0,86,0.00,,---,0.00,VWS V14.00,2013-06-25 07:35:00,
2013-06-25 03:40:00,69.7,65.3,29.99,SW,227,2.0,5.0,86,0.00,,---,0.00,VWS V14.00,2013-06-25 07:40:00,
2013-06-25 03:45:00,69.6,65.2,29.99,SW,227,3.0,5.0,86,0.00,,---,0.00,VWS V14.00,2013-06-25 07:45:00,
2013-06-25 03:50:00,69.6,65.2,29.99,SW,227,3.0,5.0,86,0.00,,---,0.00,VWS V14.00,2013-06-25 07:50:00,
2013-06-25 03:55:00,69.5,65.1,29.99,SW,227,2.0,5.0,86,0.00,,---,0.00,VWS V14.00,2013-06-25 07:55:00,
2013-06-25 04:00:00,69.5,65.5,29.99,SW,226,2.0,5.0,87,0.00,,---,0.00,VWS V14.00,2013-06-25 08:00:00,
2013-06-25 04:05:00,69.4,65.4,29.99,SW,227,4.0,5.0,87,0.00,,---,0.00,VWS V14.00,2013-06-25 08:05:00,
2013-06-25 04:10:00,69.3,65.3,29.98,WSW,242,5.0,6.0,87,0.00,,---,0.00,VWS V14.00,2013-06-25 08:10:00,
2013-06-25 04:15:00,69.2,65.2,29.98,WSW,242,1.0,6.0,87,0.00,,---,0.00,VWS V14.00,2013-06-25 08:15:00,
2013-06-25 04:20:00,69.1,65.1,29.98,WSW,242,4.0,6.0,87,0.00,,---,0.00,VWS V14.00,2013-06-25 08:20:00,
2013-06-25 04:25:00,69.0,65.3,29.98,SW,233,3.0,7.0,88,0.00,,---,0.00,VWS V14.00,2013-06-25 08:25:00,
2013-06-25 04:30:00,69.0,65.3,29.98,SW,233,2.0,7.0,88,0.00,,---,0.00,VWS V14.00,2013-06-25 08:30:00,
2013-06-25 04:35:00,68.9,65.2,29.98,SW,232,5.0,7.0,88,0.00,,---,0.00,VWS V14.00,2013-06-25 08:35:00,
2013-06-25 04:40:00,69.0,65.3,29.98,SW,228,3.0,8.0,88,0.00,,---,0.00,VWS V14.00,2013-06-25 08:40:00,
2013-06-25 04:45:00,69.0,65.3,29.98,SW,227,4.0,8.0,88,0.00,,---,0.00,VWS V14.00,2013-06-25 08:45:00,
2013-06-25 04:50:00,69.0,65.3,29.98,SW,227,3.0,8.0,88,0.00,,---,0.00,VWS V14.00,2013-06-25 08:50:00,
2013-06-25 04:55:00,69.0,65.3,29.98,SW,226,3.0,8.0,88,0.00,,---,0.00,VWS V14.00,2013-06-25 08:55:00,
2013-06-25 05:00:00,69.0,65.3,29.98,SW,232,3.0,8.0,88,0.00,,---,0.00,VWS V14.00,2013-06-25 09:00:00,
2013-06-25 05:05:00,69.0,65.3,29.98,SW,235,3.0,8.0,88,0.00,,---,0.00,VWS V14.00,2013-06-25 09:05:00,
2013-06-25 05:10:00,68.8,65.4,29.99,SW,235,3.0,5.0,89,0.00,,---,0.00,VWS V14.00,2013-06-25 09:10:00,
2013-06-25 05:15:00,68.6,64.9,29.98,SW,234,2.0,5.0,88,0.00,,---,0.00,VWS V14.00,2013-06-25 09:15:00,
2013-06-25 05:20:00,68.5,65.1,29.98,SW,235,3.0,5.0,89,0.00,,---,0.00,VWS V14.00,2013-06-25 09:20:00,
2013-06-25 05:25:00,68.3,64.9,29.98,SW,234,3.0,5.0,89,0.00,,---,0.00,VWS V14.00,2013-06-25 09:25:00,
2013-06-25 05:30:00,68.2,64.8,29.98,SW,234,1.0,5.0,89,0.00,,---,0.00,VWS V14.00,2013-06-25 09:30:00,
2013-06-25 05:35:00,68.0,64.6,29.98,SW,234,3.0,5.0,89,0.00,,---,0.00,VWS V14.00,2013-06-25 09:35:00,
2013-06-25 05:45:00,67.8,64.8,29.98,WSW,251,3.0,6.0,90,0.00,,---,0.00,VWS V14.00,2013-06-25 09:45:00,
2013-06-25 05:50:00,67.8,65.1,29.98,WSW,251,2.0,6.0,91,0.00,,---,0.00,VWS V14.00,2013-06-25 09:50:00,
2013-06-25 05:55:00,67.8,65.1,29.98,WSW,251,2.0,6.0,91,0.00,,---,0.00,VWS V14.00,2013-06-25 09:55:00,
2013-06-25 06:00:00,67.7,65.0,29.98,WSW,250,1.0,6.0,91,0.00,,---,0.00,VWS V14.00,2013-06-25 10:00:00,
2013-06-25 06:05:00,67.8,65.1,29.98,WSW,251,2.0,6.0,91,0.00,,---,0.00,VWS V14.00,2013-06-25 10:05:00,
2013-06-25 06:10:00,67.7,65.0,29.98,WSW,250,3.0,4.0,91,0.00,,---,0.00,VWS V14.00,2013-06-25 10:10:00,
2013-06-25 06:15:00,67.8,65.1,29.99,WSW,250,1.0,4.0,91,0.00,,---,0.00,VWS V14.00,2013-06-25 10:15:00,
2013-06-25 06:20:00,67.8,65.1,29.99,WSW,251,2.0,5.0,91,0.00,,---,0.00,VWS V14.00,2013-06-25 10:20:00,
2013-06-25 06:25:00,67.9,65.2,29.99,WSW,251,1.0,5.0,91,0.00,,---,0.00,VWS V14.00,2013-06-25 10:25:00,
2013-06-25 06:30:00,67.9,65.2,29.99,WSW,250,3.0,5.0,91,0.00,,---,0.00,VWS V14.00,2013-06-25 10:30:00,
2013-06-25 06:35:00,68.1,65.7,29.99,WSW,246,2.0,5.0,92,0.00,,---,0.00,VWS V14.00,2013-06-25 10:35:00,
2013-06-25 06:40:00,68.3,65.9,29.99,WSW,241,5.0,5.0,92,0.00,,---,0.00,VWS V14.00,2013-06-25 10:40:00,
2013-06-25 06:45:00,68.5,66.1,29.99,WSW,238,3.0,6.0,92,0.00,,---,0.00,VWS V14.00,2013-06-25 10:45:00,
2013-06-25 06:50:00,68.6,66.2,29.99,SW,235,2.0,6.0,92,0.00,,---,0.00,VWS V14.00,2013-06-25 10:50:00,
2013-06-25 06:55:00,68.9,66.5,29.99,SW,230,2.0,6.0,92,0.00,,---,0.00,VWS V14.00,2013-06-25 10:55:00,
2013-06-25 07:00:00,69.2,66.8,29.99,SW,227,1.0,6.0,92,0.00,,---,0.00,VWS V14.00,2013-06-25 11:00:00,
2013-06-25 07:05:00,69.4,66.7,29.99,SW,227,0.0,6.0,91,0.00,,---,0.00,VWS V14.00,2013-06-25 11:05:00,
2013-06-25 07:10:00,69.9,67.5,29.99,SW,227,1.0,3.0,92,0.00,,---,0.00,VWS V14.00,2013-06-25 11:10:00,
2013-06-25 07:15:00,70.3,67.6,29.99,SW,227,1.0,4.0,91,0.00,,---,0.00,VWS V14.00,2013-06-25 11:15:00,
2013-06-25 07:20:00,70.7,67.6,29.99,SW,227,2.0,4.0,90,0.00,,---,0.00,VWS V14.00,2013-06-25 11:20:00,
2013-06-25 07:26:00,71.2,68.1,30.00,SW,226,3.0,4.0,90,0.00,,---,0.00,VWS V14.00,2013-06-25 11:26:00,
2013-06-25 07:31:00,71.4,68.0,30.00,SW,227,2.0,4.0,89,0.00,,---,0.00,VWS V14.00,2013-06-25 11:31:00,
2013-06-25 07:36:00,71.8,68.1,30.00,SW,227,3.0,5.0,88,0.00,,---,0.00,VWS V14.00,2013-06-25 11:36:00,
2013-06-25 07:41:00,72.2,68.8,30.00,SW,232,2.0,5.0,89,0.00,,---,0.00,VWS V14.00,2013-06-25 11:41:00,
2013-06-25 07:46:00,72.6,68.8,30.00,SW,232,2.0,5.0,88,0.00,,---,0.00,VWS V14.00,2013-06-25 11:46:00,
2013-06-25 07:51:00,73.0,68.9,30.00,SW,232,0.0,5.0,87,0.00,,---,0.00,VWS V14.00,2013-06-25 11:51:00,
2013-06-25 07:56:00,73.3,68.9,30.00,SW,232,2.0,5.0,86,0.00,,---,0.00,VWS V14.00,2013-06-25 11:56:00,
2013-06-25 08:01:00,73.6,68.8,30.00,SW,232,0.0,5.0,85,0.00,,---,0.00,VWS V14.00,2013-06-25 12:01:00,
2013-06-25 08:06:00,74.1,69.3,30.00,SW,233,2.0,5.0,85,0.00,,---,0.00,VWS V14.00,2013-06-25 12:06:00,
2013-06-25 08:11:00,74.5,69.3,30.00,SW,233,2.0,4.0,84,0.00,,---,0.00,VWS V14.00,2013-06-25 12:11:00,
2013-06-25 08:16:00,75.0,69.5,30.00,SW,233,2.0,4.0,83,0.00,,---,0.00,VWS V14.00,2013-06-25 12:16:00,
2013-06-25 08:21:00,75.3,69.1,30.00,SW,233,0.0,4.0,81,0.00,,---,0.00,VWS V14.00,2013-06-25 12:21:00,
2013-06-25 08:26:00,75.7,69.5,30.00,SW,233,3.0,4.0,81,0.00,,---,0.00,VWS V14.00,2013-06-25 12:26:00,
2013-06-25 08:31:00,76.2,69.9,30.00,SW,233,2.0,4.0,81,0.00,,---,0.00,VWS V14.00,2013-06-25 12:31:00,
2013-06-25 08:36:00,76.5,70.2,30.00,SSW,212,0.0,0.0,81,0.00,,---,0.00,VWS V14.00,2013-06-25 12:36:00,
2013-06-25 08:41:00,76.7,70.4,30.00,SSW,212,0.0,4.0,81,0.00,,---,0.00,VWS V14.00,2013-06-25 12:41:00,
2013-06-25 08:46:00,77.2,70.9,30.00,SSW,212,2.0,5.0,81,0.00,,---,0.00,VWS V14.00,2013-06-25 12:46:00,
2013-06-25 08:56:00,78.3,72.0,30.00,SW,230,4.0,6.0,81,0.00,,---,0.00,VWS V14.00,2013-06-25 12:56:00,
2013-06-25 09:01:00,78.7,71.6,30.00,SW,230,2.0,6.0,79,0.00,,---,0.00,VWS V14.00,2013-06-25 13:01:00,
2013-06-25 09:06:00,79.1,71.7,30.00,SW,230,0.0,1.0,78,0.00,,---,0.00,VWS V14.00,2013-06-25 13:06:00,
2013-06-25 09:11:00,79.4,71.2,30.00,SSW,205,3.0,5.0,76,0.00,,---,0.00,VWS V14.00,2013-06-25 13:11:00,
2013-06-25 09:16:00,79.7,71.9,30.00,SSW,192,3.0,5.0,77,0.00,,---,0.00,VWS V14.00,2013-06-25 13:16:00,
2013-06-25 09:21:00,79.8,71.2,30.00,SSW,192,3.0,6.0,75,0.00,,---,0.00,VWS V14.00,2013-06-25 13:21:00,
2013-06-25 09:26:00,80.0,71.8,30.00,SSW,198,3.0,6.0,76,0.00,,---,0.00,VWS V14.00,2013-06-25 13:26:00,
2013-06-25 09:31:00,80.4,71.8,30.00,SSW,200,3.0,6.0,75,0.00,,---,0.00,VWS V14.00,2013-06-25 13:31:00,
2013-06-25 09:36:00,80.7,72.0,30.00,SSW,201,2.0,4.0,75,0.00,,---,0.00,VWS V14.00,2013-06-25 13:36:00,
2013-06-25 09:41:00,81.1,73.2,30.00,SSW,201,0.0,5.0,77,0.00,,---,0.00,VWS V14.00,2013-06-25 13:41:00,
2013-06-25 09:46:00,81.4,72.3,29.99,SSW,202,0.0,7.0,74,0.00,,---,0.00,VWS V14.00,2013-06-25 13:46:00,
2013-06-25 09:51:00,81.8,72.3,29.99,SSW,206,0.0,7.0,73,0.00,,---,0.00,VWS V14.00,2013-06-25 13:51:00,
2013-06-25 09:56:00,82.1,72.6,29.99,SSW,213,3.0,7.0,73,0.00,,---,0.00,VWS V14.00,2013-06-25 13:56:00,
2013-06-25 10:01:00,82.5,73.8,29.99,SSW,213,0.0,7.0,75,0.00,,---,0.00,VWS V14.00,2013-06-25 14:01:00,
2013-06-25 10:06:00,82.7,73.6,29.99,SSW,213,1.0,4.0,74,0.00,,---,0.00,VWS V14.00,2013-06-25 14:06:00,
2013-06-25 10:11:00,83.3,73.3,29.99,SSW,213,0.0,4.0,72,0.00,,---,0.00,VWS V14.00,2013-06-25 14:11:00,
2013-06-25 10:16:00,83.7,74.1,29.99,SW,219,3.0,5.0,73,0.00,,---,0.00,VWS V14.00,2013-06-25 14:16:00,
2013-06-25 10:21:00,83.8,73.0,29.99,SW,220,0.0,5.0,70,0.00,,---,0.00,VWS V14.00,2013-06-25 14:21:00,
2013-06-25 10:26:00,83.9,73.9,29.99,SW,219,0.0,5.0,72,0.00,,---,0.00,VWS V14.00,2013-06-25 14:26:00,
2013-06-25 10:31:00,83.9,72.7,29.99,SSW,213,5.0,6.0,69,0.00,,---,0.00,VWS V14.00,2013-06-25 14:31:00,
2013-06-25 10:36:00,83.9,73.1,29.99,SSW,213,0.0,0.0,70,0.00,,---,0.00,VWS V14.00,2013-06-25 14:36:00,
2013-06-25 10:41:00,84.0,72.7,29.99,SW,217,3.0,6.0,69,0.00,,---,0.00,VWS V14.00,2013-06-25 14:41:00,
2013-06-25 10:46:00,83.9,73.1,29.99,WSW,252,5.0,7.0,70,0.00,,---,0.00,VWS V14.00,2013-06-25 14:46:00,
2013-06-25 10:51:00,83.8,72.1,30.00,WSW,253,2.0,7.0,68,0.00,,---,0.00,VWS V14.00,2013-06-25 14:51:00,
2013-06-25 10:56:00,84.1,73.7,30.00,WSW,252,3.0,7.0,71,0.00,,---,0.00,VWS V14.00,2013-06-25 14:56:00,
2013-06-25 11:01:00,85.0,73.7,29.99,WSW,251,5.0,7.0,69,0.00,,---,0.00,VWS V14.00,2013-06-25 15:01:00,
2013-06-25 11:06:00,85.5,73.3,29.99,SW,236,5.0,7.0,67,0.00,,---,0.00,VWS V14.00,2013-06-25 15:06:00,
2013-06-25 11:11:00,85.8,73.6,29.99,WSW,245,3.0,7.0,67,0.00,,---,0.00,VWS V14.00,2013-06-25 15:11:00,
2013-06-25 11:16:00,86.0,75.1,29.99,SW,217,5.0,9.0,70,0.00,,---,0.00,VWS V14.00,2013-06-25 15:16:00,
2013-06-25 11:21:00,86.2,73.1,29.99,SW,229,0.0,9.0,65,0.00,,---,0.00,VWS V14.00,2013-06-25 15:21:00,
2013-06-25 11:26:00,86.4,72.8,29.99,SW,236,3.0,10.0,64,0.00,,---,0.00,VWS V14.00,2013-06-25 15:26:00,
2013-06-25 11:31:00,86.4,73.7,29.98,SW,229,3.0,10.0,66,0.00,,---,0.00,VWS V14.00,2013-06-25 15:31:00,
2013-06-25 11:36:00,86.5,74.2,29.98,WSW,246,3.0,7.0,67,0.00,,---,0.00,VWS V14.00,2013-06-25 15:36:00,
2013-06-25 11:41:00,87.0,73.4,29.98,SW,222,6.0,10.0,64,0.00,,---,0.00,VWS V14.00,2013-06-25 15:41:00,
2013-06-25 11:46:00,87.1,74.4,29.98,SW,227,0.0,10.0,66,0.00,,---,0.00,VWS V14.00,2013-06-25 15:46:00,
2013-06-25 11:51:00,87.3,73.2,29.98,SW,223,8.0,11.0,63,0.00,,---,0.00,VWS V14.00,2013-06-25 15:51:00,
2013-06-25 11:56:00,87.0,74.3,29.98,WSW,242,0.0,11.0,66,0.00,,---,0.00,VWS V14.00,2013-06-25 15:56:00,
2013-06-25 12:01:00,86.6,73.0,29.98,SW,220,3.0,11.0,64,0.00,,---,0.00,VWS V14.00,2013-06-25 16:01:00,
2013-06-25 12:06:00,86.5,73.3,29.98,SW,225,1.0,2.0,65,0.00,,---,0.00,VWS V14.00,2013-06-25 16:06:00,
2013-06-25 12:11:00,86.3,73.6,29.98,SW,227,1.0,5.0,66,0.00,,---,0.00,VWS V14.00,2013-06-25 16:11:00,
2013-06-25 12:16:00,86.4,73.2,29.98,SW,227,4.0,6.0,65,0.00,,---,0.00,VWS V14.00,2013-06-25 16:16:00,
2013-06-25 12:21:00,86.7,74.4,29.98,WSW,237,4.0,6.0,67,0.00,,---,0.00,VWS V14.00,2013-06-25 16:21:00,
2013-06-25 12:26:00,87.1,75.7,29.97,SW,224,2.0,7.0,69,0.00,,---,0.00,VWS V14.00,2013-06-25 16:26:00,
2013-06-25 12:31:00,87.4,74.2,29.98,WSW,239,0.0,10.0,65,0.00,,---,0.00,VWS V14.00,2013-06-25 16:31:00,
2013-06-25 12:36:00,87.3,74.1,29.97,SW,231,3.0,5.0,65,0.00,,---,0.00,VWS V14.00,2013-06-25 16:36:00,
2013-06-25 12:41:00,87.5,73.8,29.97,SW,214,7.0,11.0,64,0.00,,---,0.00,VWS V14.00,2013-06-25 16:41:00,
2013-06-25 12:46:00,87.8,75.0,29.97,West,260,7.0,11.0,66,0.00,,---,0.00,VWS V14.00,2013-06-25 16:46:00,
2013-06-25 12:51:00,88.3,76.0,29.97,SW,235,6.0,11.0,67,0.00,,---,0.00,VWS V14.00,2013-06-25 16:51:00,
2013-06-25 12:56:00,88.5,74.3,29.96,West,268,4.0,11.0,63,0.00,,---,0.00,VWS V14.00,2013-06-25 16:56:00,
2013-06-25 13:01:00,88.5,72.8,29.97,SW,215,6.0,11.0,60,0.00,,---,0.00,VWS V14.00,2013-06-25 17:01:00,
2013-06-25 13:06:00,88.6,74.4,29.97,West,277,0.0,0.0,63,0.00,,---,0.00,VWS V14.00,2013-06-25 17:06:00,
2013-06-25 13:11:00,88.9,75.6,29.97,West,277,0.0,5.0,65,0.00,,---,0.00,VWS V14.00,2013-06-25 17:11:00,
2013-06-25 13:16:00,89.0,73.3,29.97,West,261,0.0,10.0,60,0.00,,---,0.00,VWS V14.00,2013-06-25 17:16:00,
2013-06-25 13:21:00,89.2,73.5,29.96,WNW,283,0.0,10.0,60,0.00,,---,0.00,VWS V14.00,2013-06-25 17:21:00,
2013-06-25 13:26:00,89.5,74.3,29.96,West,279,4.0,11.0,61,0.00,,---,0.00,VWS V14.00,2013-06-25 17:26:00,
2013-06-25 13:31:00,89.5,73.8,29.95,WSW,255,2.0,11.0,60,0.00,,---,0.00,VWS V14.00,2013-06-25 17:31:00,
2013-06-25 13:36:00,89.7,75.4,29.95,WSW,257,3.0,5.0,63,0.00,,---,0.00,VWS V14.00,2013-06-25 17:36:00,
2013-06-25 13:42:00,89.6,73.4,29.94,WSW,248,0.0,6.0,59,0.00,,---,0.00,VWS V14.00,2013-06-25 17:42:00,
2013-06-25 13:47:00,89.4,72.7,29.94,ESE,119,4.0,6.0,58,0.00,,---,0.00,VWS V14.00,2013-06-25 17:47:00,
2013-06-25 13:52:00,89.4,74.2,29.94,SE,144,0.0,6.0,61,0.00,,---,0.00,VWS V14.00,2013-06-25 17:52:00,
2013-06-25 13:57:00,89.8,76.5,29.94,South,178,0.0,6.0,65,0.00,,---,0.00,VWS V14.00,2013-06-25 17:57:00,
2013-06-25 14:02:00,90.1,74.3,29.94,West,260,7.0,9.0,60,0.00,,---,0.00,VWS V14.00,2013-06-25 18:02:00,
2013-06-25 14:07:00,90.4,75.6,29.93,West,275,7.0,7.0,62,0.00,,---,0.00,VWS V14.00,2013-06-25 18:07:00,
2013-06-25 14:12:00,90.6,75.8,29.93,WSW,248,3.0,10.0,62,0.00,,---,0.00,VWS V14.00,2013-06-25 18:12:00,
2013-06-25 14:17:00,90.8,72.9,29.93,SW,232,4.0,10.0,56,0.00,,---,0.00,VWS V14.00,2013-06-25 18:17:00,
2013-06-25 14:22:00,90.8,72.9,29.93,WSW,240,0.0,10.0,56,0.00,,---,0.00,VWS V14.00,2013-06-25 18:22:00,
2013-06-25 14:27:00,91.0,73.7,29.93,West,267,0.0,11.0,57,0.00,,---,0.00,VWS V14.00,2013-06-25 18:27:00,
2013-06-25 14:32:00,90.9,71.4,29.93,SW,231,3.0,11.0,53,0.00,,---,0.00,VWS V14.00,2013-06-25 18:32:00,
2013-06-25 14:37:00,90.7,74.4,29.93,SW,227,1.0,4.0,59,0.00,,---,0.00,VWS V14.00,2013-06-25 18:37:00,
2013-06-25 14:42:00,90.4,72.6,29.93,SSW,196,1.0,10.0,56,0.00,,---,0.00,VWS V14.00,2013-06-25 18:42:00,
2013-06-25 14:47:00,90.2,74.4,29.93,SSW,196,4.0,10.0,60,0.00,,---,0.00,VWS V14.00,2013-06-25 18:47:00,
2013-06-25 14:52:00,90.5,74.7,29.93,SSW,205,0.0,10.0,60,0.00,,---,0.00,VWS V14.00,2013-06-25 18:52:00,
2013-06-25 14:57:00,90.7,72.3,29.93,SSW,200,0.0,10.0,55,0.00,,---,0.00,VWS V14.00,2013-06-25 18:57:00,
2013-06-25 15:02:00,91.0,74.2,29.93,SSW,200,0.0,10.0,58,0.00,,---,0.00,VWS V14.00,2013-06-25 19:02:00,
2013-06-25 15:07:00,91.7,74.8,29.93,SSW,206,3.0,5.0,58,0.00,,---,0.00,VWS V14.00,2013-06-25 19:07:00,
2013-06-25 15:12:00,92.0,73.0,29.93,WSW,245,0.0,9.0,54,0.00,,---,0.00,VWS V14.00,2013-06-25 19:12:00,
2013-06-25 15:17:00,92.0,71.3,29.93,WSW,243,0.0,9.0,51,0.00,,---,0.00,VWS V14.00,2013-06-25 19:17:00,
2013-06-25 15:22:00,92.0,71.9,29.93,SW,226,6.0,9.0,52,0.00,,---,0.00,VWS V14.00,2013-06-25 19:22:00,
2013-06-25 15:27:00,91.8,72.2,29.93,SSW,200,5.0,9.0,53,0.00,,---,0.00,VWS V14.00,2013-06-25 19:27:00,
2013-06-25 15:32:00,90.9,71.4,29.93,SSW,210,3.0,9.0,53,0.00,,---,0.00,VWS V14.00,2013-06-25 19:32:00,
2013-06-25 15:37:00,90.6,72.8,29.93,SSW,210,0.0,0.0,56,0.00,,---,0.00,VWS V14.00,2013-06-25 19:37:00,
2013-06-25 15:42:00,90.9,72.5,29.93,SSW,210,5.0,5.0,55,0.00,,---,0.00,VWS V14.00,2013-06-25 19:42:00,
2013-06-25 15:47:00,90.9,72.5,29.92,SW,220,4.0,6.0,55,0.00,,---,0.00,VWS V14.00,2013-06-25 19:47:00,
2013-06-25 15:52:00,90.8,71.9,29.92,SW,230,4.0,6.0,54,0.00,,---,0.00,VWS V14.00,2013-06-25 19:52:00,
2013-06-25 15:57:00,90.7,72.3,29.92,SW,214,3.0,7.0,55,0.00,,---,0.00,VWS V14.00,2013-06-25 19:57:00,
2013-06-25 16:02:00,91.0,74.2,29.92,SW,215,0.0,7.0,58,0.00,,---,0.00,VWS V14.00,2013-06-25 20:02:00,
2013-06-25 16:07:00,91.4,73.0,29.92,SW,215,0.0,2.0,55,0.00,,---,0.00,VWS V14.00,2013-06-25 20:07:00,
2013-06-25 16:12:00,91.4,73.0,29.92,SW,214,0.0,5.0,55,0.00,,---,0.00,VWS V14.00,2013-06-25 20:12:00,
2013-06-25 16:17:00,91.5,72.0,29.91,SW,215,0.0,5.0,53,0.00,,---,0.00,VWS V14.00,2013-06-25 20:17:00,
2013-06-25 16:22:00,91.3,71.8,29.91,SW,214,0.0,5.0,53,0.00,,---,0.00,VWS V14.00,2013-06-25 20:22:00,
2013-06-25 16:27:00,91.1,73.8,29.90,SW,214,0.0,5.0,57,0.00,,---,0.00,VWS V14.00,2013-06-25 20:27:00,
2013-06-25 16:32:00,91.1,73.2,29.90,SSE,154,3.0,6.0,56,0.00,,---,0.00,VWS V14.00,2013-06-25 20:32:00,
2013-06-25 16:37:00,91.0,72.1,29.89,SSE,154,0.0,0.0,54,0.00,,---,0.00,VWS V14.00,2013-06-25 20:37:00,
2013-06-25 16:42:00,91.0,73.1,29.89,SSE,153,2.0,7.0,56,0.00,,---,0.00,VWS V14.00,2013-06-25 20:42:00,
2013-06-25 16:47:00,90.9,73.6,29.89,South,184,5.0,9.0,57,0.00,,---,0.00,VWS V14.00,2013-06-25 20:47:00,
2013-06-25 16:52:00,90.8,74.0,29.89,South,180,8.0,9.0,58,0.00,,---,0.00,VWS V14.00,2013-06-25 20:52:00,
2013-06-25 16:57:00,90.7,72.9,29.89,South,190,3.0,9.0,56,0.00,,---,0.00,VWS V14.00,2013-06-25 20:57:00,
2013-06-25 17:02:00,90.7,74.4,29.89,SSE,159,8.0,9.0,59,0.00,,---,0.00,VWS V14.00,2013-06-25 21:02:00,
2013-06-25 17:07:00,90.7,73.4,29.89,SSW,198,4.0,8.0,57,0.00,,---,0.00,VWS V14.00,2013-06-25 21:07:00,
2013-06-25 17:12:00,90.6,73.3,29.89,SSW,192,3.0,11.0,57,0.00,,---,0.00,VWS V14.00,2013-06-25 21:12:00,
2013-06-25 17:17:00,90.6,72.8,29.89,South,188,2.0,11.0,56,0.00,,---,0.00,VWS V14.00,2013-06-25 21:17:00,
2013-06-25 17:22:00,90.5,73.2,29.89,South,173,4.0,11.0,57,0.00,,---,0.00,VWS V14.00,2013-06-25 21:22:00,
2013-06-25 17:27:00,90.3,74.0,29.89,South,176,0.0,11.0,59,0.00,,---,0.00,VWS V14.00,2013-06-25 21:27:00,
2013-06-25 17:32:00,90.1,75.3,29.88,South,176,0.0,11.0,62,0.00,,---,0.00,VWS V14.00,2013-06-25 21:32:00,
2013-06-25 17:37:00,90.1,74.3,29.88,South,175,2.0,5.0,60,0.00,,---,0.00,VWS V14.00,2013-06-25 21:37:00,
2013-06-25 17:42:00,90.0,74.3,29.88,SSE,164,2.0,8.0,60,0.00,,---,0.00,VWS V14.00,2013-06-25 21:42:00,
2013-06-25 17:47:00,90.0,74.3,29.87,SSE,167,3.0,8.0,60,0.00,,---,0.00,VWS V14.00,2013-06-25 21:47:00,
2013-06-25 17:52:00,89.9,74.2,29.87,SSE,152,5.0,10.0,60,0.00,,---,0.00,VWS V14.00,2013-06-25 21:52:00,
2013-06-25 17:57:00,89.7,74.0,29.87,SSW,193,6.0,11.0,60,0.00,,---,0.00,VWS V14.00,2013-06-25 21:57:00,
2013-06-25 18:02:00,89.2,74.0,29.87,SSW,212,9.0,15.0,61,0.00,,---,0.00,VWS V14.00,2013-06-25 22:02:00,
2013-06-25 18:07:00,88.7,74.0,29.87,South,184,6.0,9.0,62,0.00,,---,0.00,VWS V14.00,2013-06-25 22:07:00,
2013-06-25 18:12:00,88.1,73.4,29.87,South,172,11.0,12.0,62,0.00,,---,0.00,VWS V14.00,2013-06-25 22:12:00,
2013-06-25 18:17:00,87.8,73.2,29.87,SSW,197,4.0,13.0,62,0.00,,---,0.00,VWS V14.00,2013-06-25 22:17:00,
2013-06-25 18:22:00,87.6,72.5,29.87,SSE,168,5.0,13.0,61,0.00,,---,0.00,VWS V14.00,2013-06-25 22:22:00,
2013-06-25 18:27:00,87.4,72.8,29.86,SSW,198,4.0,13.0,62,0.00,,---,0.00,VWS V14.00,2013-06-25 22:27:00,
2013-06-25 18:32:00,87.3,72.2,29.86,South,179,2.0,13.0,61,0.00,,---,0.00,VWS V14.00,2013-06-25 22:32:00,
2013-06-25 18:37:00,87.1,72.5,29.86,South,191,0.0,12.0,62,0.00,,---,0.00,VWS V14.00,2013-06-25 22:37:00,
2013-06-25 18:42:00,86.9,71.8,29.86,South,169,5.0,12.0,61,0.00,,---,0.00,VWS V14.00,2013-06-25 22:42:00,
2013-06-25 18:47:00,86.7,71.7,29.86,South,187,7.0,12.0,61,0.00,,---,0.00,VWS V14.00,2013-06-25 22:47:00,
2013-06-25 18:52:00,86.4,71.8,29.86,SSW,198,3.0,12.0,62,0.00,,---,0.00,VWS V14.00,2013-06-25 22:52:00,
2013-06-25 18:57:00,86.2,71.7,29.86,SSW,194,9.0,12.0,62,0.00,,---,0.00,VWS V14.00,2013-06-25 22:57:00,
2013-06-25 19:02:00,86.2,72.1,29.86,South,191,0.0,12.0,63,0.00,,---,0.00,VWS V14.00,2013-06-25 23:02:00,
2013-06-25 19:07:00,86.1,72.5,29.86,South,191,2.0,5.0,64,0.00,,---,0.00,VWS V14.00,2013-06-25 23:07:00,
2013-06-25 19:12:00,86.1,72.5,29.86,SSW,194,4.0,5.0,64,0.00,,---,0.00,VWS V14.00,2013-06-25 23:12:00,
2013-06-25 19:17:00,86.0,72.4,29.86,South,187,0.0,6.0,64,0.00,,---,0.00,VWS V14.00,2013-06-25 23:17:00,
2013-06-25 19:22:00,86.0,71.9,29.86,South,191,4.0,6.0,63,0.00,,---,0.00,VWS V14.00,2013-06-25 23:22:00,
2013-06-25 19:27:00,85.8,71.3,29.86,SSW,195,0.0,7.0,62,0.00,,---,0.00,VWS V14.00,2013-06-25 23:27:00,
2013-06-25 19:32:00,85.8,71.3,29.86,SSW,201,3.0,7.0,62,0.00,,---,0.00,VWS V14.00,2013-06-25 23:32:00,
2013-06-25 19:37:00,85.7,71.2,29.86,SSW,202,7.0,7.0,62,0.00,,---,0.00,VWS V14.00,2013-06-25 23:37:00,
2013-06-25 19:42:00,85.5,71.0,29.87,SSW,202,4.0,7.0,62,0.00,,---,0.00,VWS V14.00,2013-06-25 23:42:00,
2013-06-25 19:47:00,85.4,70.9,29.87,SSW,205,1.0,9.0,62,0.00,,---,0.00,VWS V14.00,2013-06-25 23:47:00,
2013-06-25 19:52:00,85.2,71.2,29.87,SSW,205,1.0,9.0,63,0.00,,---,0.00,VWS V14.00,2013-06-25 23:52:00,
2013-06-25 19:57:00,85.1,71.6,29.88,SSW,205,0.0,9.0,64,0.00,,---,0.00,VWS V14.00,2013-06-25 23:57:00,
2013-06-25 20:02:00,84.9,71.8,29.88,SSW,205,0.0,9.0,65,0.00,,---,0.00,VWS V14.00,2013-06-26 00:02:00,
2013-06-25 20:07:00,84.7,72.1,29.88,SSW,205,0.0,0.0,66,0.00,,---,0.00,VWS V14.00,2013-06-26 00:07:00,
2013-06-25 20:12:00,84.3,71.7,29.88,SSW,205,0.0,3.0,66,0.00,,---,0.00,VWS V14.00,2013-06-26 00:12:00,
2013-06-25 20:17:00,84.1,71.5,29.88,SSW,205,0.0,3.0,66,0.00,,---,0.00,VWS V14.00,2013-06-26 00:17:00,
2013-06-25 20:22:00,83.9,71.8,29.89,SSW,205,0.0,3.0,67,0.00,,---,0.00,VWS V14.00,2013-06-26 00:22:00,
2013-06-25 20:27:00,83.6,71.5,29.89,SSW,205,0.0,3.0,67,0.00,,---,0.00,VWS V14.00,2013-06-26 00:27:00,
2013-06-25 20:32:00,83.4,71.7,29.89,SSW,205,0.0,3.0,68,0.00,,---,0.00,VWS V14.00,2013-06-26 00:32:00,
2013-06-25 20:38:00,83.2,71.6,29.90,SSW,205,0.0,0.0,68,0.00,,---,0.00,VWS V14.00,2013-06-26 00:38:00,
2013-06-25 20:43:00,83.0,71.8,29.90,SSW,205,0.0,0.0,69,0.00,,---,0.00,VWS V14.00,2013-06-26 00:43:00,
2013-06-25 20:48:00,82.8,72.0,29.90,SSW,205,0.0,0.0,70,0.00,,---,0.00,VWS V14.00,2013-06-26 00:48:00,
2013-06-25 20:53:00,82.6,72.2,29.90,SSW,205,0.0,0.0,71,0.00,,---,0.00,VWS V14.00,2013-06-26 00:53:00,
2013-06-25 20:58:00,82.3,72.4,29.90,SSW,205,0.0,2.0,72,0.00,,---,0.00,VWS V14.00,2013-06-26 00:58:00,
2013-06-25 21:03:00,82.1,72.6,29.90,SSW,205,0.0,2.0,73,0.00,,---,0.00,VWS V14.00,2013-06-26 01:03:00,
2013-06-25 21:08:00,81.8,72.7,29.90,SSW,205,0.0,0.0,74,0.00,,---,0.00,VWS V14.00,2013-06-26 01:08:00,
2013-06-25 21:13:00,81.6,72.5,29.90,SSW,205,0.0,1.0,74,0.00,,---,0.00,VWS V14.00,2013-06-26 01:13:00,
2013-06-25 21:18:00,81.4,72.7,29.90,SSW,203,0.0,1.0,75,0.00,,---,0.00,VWS V14.00,2013-06-26 01:18:00,
2013-06-25 21:23:00,81.2,72.5,29.90,SSW,205,0.0,1.0,75,0.00,,---,0.00,VWS V14.00,2013-06-26 01:23:00,
2013-06-25 21:28:00,81.0,72.3,29.90,SSW,205,0.0,1.0,75,0.00,,---,0.00,VWS V14.00,2013-06-26 01:28:00,
2013-06-25 21:33:00,80.7,71.7,29.90,SSW,205,0.0,1.0,74,0.00,,---,0.00,VWS V14.00,2013-06-26 01:33:00,
2013-06-25 21:38:00,80.6,71.6,29.90,SSW,205,0.0,0.0,74,0.00,,---,0.00,VWS V14.00,2013-06-26 01:38:00,
2013-06-25 21:43:00,80.7,71.2,29.90,SSW,204,0.0,1.0,73,0.00,,---,0.00,VWS V14.00,2013-06-26 01:43:00,
2013-06-25 21:48:00,80.8,71.7,29.91,SSW,204,0.0,1.0,74,0.00,,---,0.00,VWS V14.00,2013-06-26 01:48:00,
2013-06-25 21:53:00,80.7,71.7,29.91,SSW,203,0.0,1.0,74,0.00,,---,0.00,VWS V14.00,2013-06-26 01:53:00,
2013-06-25 21:58:00,80.5,71.5,29.91,SSW,204,1.0,2.0,74,0.00,,---,0.00,VWS V14.00,2013-06-26 01:58:00,
2013-06-25 22:03:00,80.4,71.4,29.91,SSW,205,0.0,2.0,74,0.00,,---,0.00,VWS V14.00,2013-06-26 02:03:00,
2013-06-25 22:08:00,80.1,71.5,29.91,SSW,205,0.0,2.0,75,0.00,,---,0.00,VWS V14.00,2013-06-26 02:08:00,
2013-06-25 22:13:00,79.5,71.3,29.93,North,9,7.0,10.0,76,0.00,,---,0.00,VWS V14.00,2013-06-26 02:13:00,
2013-06-25 22:18:00,79.0,70.0,29.93,NW,310,7.0,15.0,74,0.00,,---,0.00,VWS V14.00,2013-06-26 02:18:00,
2013-06-25 22:23:00,79.2,69.0,29.93,North,360,4.0,15.0,71,0.00,,---,0.00,VWS V14.00,2013-06-26 02:23:00,
2013-06-25 22:28:00,79.2,68.2,29.92,North,355,5.0,15.0,69,0.00,,---,0.00,VWS V14.00,2013-06-26 02:28:00,
2013-06-25 22:33:00,79.3,67.4,29.92,North,355,2.0,15.0,67,0.00,,---,0.00,VWS V14.00,2013-06-26 02:33:00,
2013-06-25 22:38:00,79.2,66.0,29.92,North,355,4.0,6.0,64,0.00,,---,0.00,VWS V14.00,2013-06-26 02:38:00,
2013-06-25 22:43:00,79.1,65.4,29.92,North,355,1.0,6.0,63,0.00,,---,0.00,VWS V14.00,2013-06-26 02:43:00,
2013-06-25 22:48:00,79.0,65.8,29.92,North,355,0.0,6.0,64,0.00,,---,0.00,VWS V14.00,2013-06-26 02:48:00,
2013-06-25 22:53:00,78.7,65.1,29.92,NE,39,7.0,9.0,63,0.00,,---,0.00,VWS V14.00,2013-06-26 02:53:00,
2013-06-25 22:58:00,78.4,63.4,29.92,NNE,20,9.0,12.0,60,0.00,,---,0.00,VWS V14.00,2013-06-26 02:58:00,
2013-06-25 23:03:00,78.0,63.0,29.91,NNE,30,3.0,12.0,60,0.00,,---,0.00,VWS V14.00,2013-06-26 03:03:00,
2013-06-25 23:08:00,77.6,62.6,29.91,ENE,64,5.0,7.0,60,0.00,,---,0.00,VWS V14.00,2013-06-26 03:08:00,
2013-06-25 23:13:00,77.2,63.2,29.90,ENE,66,2.0,8.0,62,0.00,,---,0.00,VWS V14.00,2013-06-26 03:13:00,
2013-06-25 23:18:00,76.9,62.4,29.90,ENE,66,3.0,8.0,61,0.00,,---,0.00,VWS V14.00,2013-06-26 03:18:00,
2013-06-25 23:23:00,76.7,62.7,29.90,ENE,66,0.0,8.0,62,0.00,,---,0.00,VWS V14.00,2013-06-26 03:23:00,
2013-06-25 23:28:00,76.4,62.4,29.89,ENE,65,0.0,8.0,62,0.00,,---,0.00,VWS V14.00,2013-06-26 03:28:00,
2013-06-25 23:33:00,76.2,62.7,29.89,ENE,66,0.0,8.0,63,0.00,,---,0.00,VWS V14.00,2013-06-26 03:33:00,
2013-06-25 23:38:00,76.0,62.5,29.89,ENE,65,2.0,2.0,63,0.00,,---,0.00,VWS V14.00,2013-06-26 03:38:00,
2013-06-25 23:43:00,75.8,62.3,29.88,ENE,66,3.0,3.0,63,0.00,,---,0.00,VWS V14.00,2013-06-26 03:43:00,
2013-06-25 23:48:00,75.6,62.6,29.88,ENE,66,0.0,3.0,64,0.00,,---,0.00,VWS V14.00,2013-06-26 03:48:00,
2013-06-25 23:53:00,75.3,62.7,29.88,ENE,65,0.0,3.0,65,0.00,,---,0.00,VWS V14.00,2013-06-26 03:53:00,
2013-06-25 23:58:00,75.1,62.5,29.88,ENE,66,2.0,3.0,65,0.00,,---,0.00,VWS V14.00,2013-06-26 03:58:00,